EAG4481 SBRF-SBFZ

Flight info

Callsign EAG4481
Flight time 1h 5m
Altitude 36000
Route IROSI UZ81 TENUB
Aircraft A21N/L-L/2000

Departure

Time 2026-05-04 00:47
Airport Recife/Guararapes - Gilberto Freyre International Airport (SBRF)

Arrival

Time 2026-05-04 01:53
Airport Pinto Martins International Airport (SBFZ)
Time Latitude Longitude Altitude Speed Heading
2026-05-04 00:19 -8.13279 -34.91882 42 ft 0 kts 71°
2026-05-04 00:37 -8.13279 -34.91884 42 ft 2 kts 71°
2026-05-04 00:37 -8.13284 -34.91898 42 ft 2 kts 71°
2026-05-04 00:38 -8.13289 -34.91913 42 ft 2 kts 71°
2026-05-04 00:38 -8.13294 -34.91926 42 ft 1 kts 71°
2026-05-04 00:38 -8.13298 -34.91936 42 ft 2 kts 56°
2026-05-04 00:38 -8.13309 -34.91946 42 ft 2 kts 20°
2026-05-04 00:39 -8.13324 -34.91948 42 ft 1 kts 348°
2026-05-04 00:39 -8.13330 -34.91946 42 ft 1 kts 339°
2026-05-04 00:39 -8.13332 -34.91945 42 ft 0 kts 341°
2026-05-04 00:40 -8.13331 -34.91945 42 ft 0 kts 341°
2026-05-04 00:41 -8.13325 -34.91947 42 ft 2 kts 341°
2026-05-04 00:41 -8.13304 -34.91954 42 ft 4 kts 342°
2026-05-04 00:41 -8.13262 -34.91968 42 ft 8 kts 342°
2026-05-04 00:41 -8.13192 -34.91991 42 ft 12 kts 342°
2026-05-04 00:42 -8.13098 -34.92021 42 ft 15 kts 342°
2026-05-04 00:42 -8.12991 -34.92056 42 ft 16 kts 342°
2026-05-04 00:42 -8.12884 -34.92091 42 ft 16 kts 342°
2026-05-04 00:42 -8.12777 -34.92125 42 ft 16 kts 342°
2026-05-04 00:43 -8.12673 -34.92159 42 ft 15 kts 341°
2026-05-04 00:43 -8.12569 -34.92195 42 ft 15 kts 341°
2026-05-04 00:43 -8.12465 -34.92230 42 ft 15 kts 342°
2026-05-04 00:43 -8.12360 -34.92263 42 ft 15 kts 342°
2026-05-04 00:44 -8.12258 -34.92296 42 ft 15 kts 342°
2026-05-04 00:44 -8.12155 -34.92330 42 ft 15 kts 342°
2026-05-04 00:44 -8.12053 -34.92363 42 ft 15 kts 342°
2026-05-04 00:44 -8.11951 -34.92396 42 ft 15 kts 342°
2026-05-04 00:45 -8.11850 -34.92430 42 ft 15 kts 341°
2026-05-04 00:45 -8.11749 -34.92464 42 ft 15 kts 341°
2026-05-04 00:45 -8.11648 -34.92498 42 ft 15 kts 338°
2026-05-04 00:45 -8.11560 -34.92555 42 ft 15 kts 321°
2026-05-04 00:46 -8.11479 -34.92623 42 ft 15 kts 320°
2026-05-04 00:46 -8.11422 -34.92695 42 ft 11 kts 248°
2026-05-04 00:46 -8.11444 -34.92705 42 ft 0 kts 172°
2026-05-04 00:46 -8.11542 -34.92680 42 ft 47 kts 162°
2026-05-04 00:47 -8.12090 -34.92499 42 ft 117 kts 162°
2026-05-04 00:47 -8.13059 -34.92180 103 ft 167 kts 161°
2026-05-04 00:47 -8.14102 -34.91782 892 ft 159 kts 156°
2026-05-04 00:47 -8.15083 -34.91362 1611 ft 157 kts 159°
2026-05-04 00:48 -8.16124 -34.91296 2113 ft 156 kts 201°
2026-05-04 00:48 -8.16909 -34.92083 2402 ft 172 kts 248°
2026-05-04 00:48 -8.17140 -34.93314 2686 ft 187 kts 257°
2026-05-04 00:48 -8.17499 -34.94617 3019 ft 198 kts 246°
2026-05-04 00:49 -8.18058 -34.95932 3370 ft 211 kts 242°
2026-05-04 00:49 -8.18721 -34.97314 3650 ft 230 kts 242°
2026-05-04 00:49 -8.19431 -34.98832 3976 ft 250 kts 243°
2026-05-04 00:49 -8.20180 -35.00502 4391 ft 267 kts 244°
2026-05-04 00:50 -8.20930 -35.02226 5055 ft 273 kts 244°
2026-05-04 00:50 -8.21677 -35.03969 5646 ft 274 kts 244°
2026-05-04 00:50 -8.22439 -35.05760 5950 ft 275 kts 244°
2026-05-04 00:50 -8.23190 -35.07526 5982 ft 275 kts 244°
2026-05-04 00:51 -8.23939 -35.09289 5985 ft 274 kts 244°
2026-05-04 00:51 -8.24687 -35.11050 5986 ft 274 kts 244°
2026-05-04 00:51 -8.25285 -35.12887 5970 ft 277 kts 262°
2026-05-04 00:51 -8.25036 -35.14807 5976 ft 283 kts 291°
2026-05-04 00:52 -8.23859 -35.16424 6060 ft 292 kts 322°
2026-05-04 00:52 -8.21995 -35.17283 6714 ft 298 kts 346°
2026-05-04 00:52 -8.20015 -35.17728 7636 ft 295 kts 347°
2026-05-04 00:52 -8.18024 -35.18156 8386 ft 298 kts 347°
2026-05-04 00:53 -8.15984 -35.18605 9126 ft 302 kts 347°
2026-05-04 00:53 -8.13944 -35.19067 9862 ft 305 kts 346°
2026-05-04 00:53 -8.11888 -35.19541 10511 ft 311 kts 346°
2026-05-04 00:53 -8.09717 -35.20047 10865 ft 328 kts 346°
2026-05-04 00:54 -8.07453 -35.20577 11277 ft 342 kts 346°
2026-05-04 00:54 -8.05139 -35.21119 11944 ft 346 kts 346°
2026-05-04 00:54 -8.02782 -35.21669 12657 ft 348 kts 346°
2026-05-04 00:54 -8.00394 -35.22227 13346 ft 351 kts 346°
2026-05-04 00:55 -7.98014 -35.22783 14008 ft 354 kts 345°
2026-05-04 00:55 -7.95615 -35.23343 14658 ft 357 kts 345°
2026-05-04 00:55 -7.93196 -35.23909 15293 ft 360 kts 345°
2026-05-04 00:55 -7.90758 -35.24480 15918 ft 362 kts 345°
2026-05-04 00:56 -7.88300 -35.25056 16533 ft 365 kts 345°
2026-05-04 00:56 -7.85840 -35.25631 17130 ft 367 kts 345°
2026-05-04 00:56 -7.83356 -35.26212 17717 ft 370 kts 345°
2026-05-04 00:56 -7.80860 -35.26794 18292 ft 372 kts 345°
2026-05-04 00:57 -7.78333 -35.27383 18854 ft 374 kts 345°
2026-05-04 00:57 -7.75805 -35.27973 19402 ft 376 kts 344°
2026-05-04 00:57 -7.73231 -35.28574 19952 ft 378 kts 344°
2026-05-04 00:57 -7.70704 -35.29164 20483 ft 380 kts 344°
2026-05-04 00:58 -7.68122 -35.29767 21014 ft 382 kts 344°
2026-05-04 00:58 -7.65512 -35.30375 21539 ft 384 kts 344°
2026-05-04 00:58 -7.62964 -35.31085 22033 ft 384 kts 336°
2026-05-04 00:58 -7.60610 -35.32309 22529 ft 381 kts 323°
2026-05-04 00:59 -7.58601 -35.34020 23026 ft 380 kts 312°
2026-05-04 00:59 -7.56802 -35.35950 23518 ft 381 kts 310°
2026-05-04 00:59 -7.55006 -35.37944 23985 ft 383 kts 310°
2026-05-04 00:59 -7.53214 -35.39927 24441 ft 385 kts 310°
2026-05-04 01:00 -7.51418 -35.41899 24889 ft 386 kts 311°
2026-05-04 01:00 -7.49599 -35.43885 25330 ft 388 kts 311°
2026-05-04 01:00 -7.47758 -35.45889 25761 ft 390 kts 311°
2026-05-04 01:00 -7.45915 -35.47891 26178 ft 392 kts 311°
2026-05-04 01:01 -7.44062 -35.49904 26581 ft 394 kts 311°
2026-05-04 01:01 -7.42157 -35.51872 26972 ft 396 kts 314°
2026-05-04 01:01 -7.40111 -35.53755 27361 ft 398 kts 318°
2026-05-04 01:01 -7.37995 -35.55556 27742 ft 400 kts 319°
2026-05-04 01:02 -7.35858 -35.57357 28113 ft 402 kts 319°
2026-05-04 01:02 -7.33724 -35.59155 28469 ft 404 kts 319°
2026-05-04 01:02 -7.31555 -35.60982 28817 ft 406 kts 319°
2026-05-04 01:02 -7.29390 -35.62808 29156 ft 407 kts 319°
2026-05-04 01:03 -7.27222 -35.64637 29489 ft 409 kts 319°
2026-05-04 01:03 -7.25061 -35.66460 29810 ft 411 kts 319°
2026-05-04 01:03 -7.22859 -35.68317 30134 ft 412 kts 319°
2026-05-04 01:03 -7.20665 -35.70169 30441 ft 414 kts 320°
2026-05-04 01:04 -7.18445 -35.72041 30741 ft 416 kts 320°
2026-05-04 01:04 -7.16239 -35.73899 31031 ft 418 kts 320°
2026-05-04 01:04 -7.14011 -35.75776 31315 ft 419 kts 320°
2026-05-04 01:04 -7.11778 -35.77655 31634 ft 420 kts 320°
2026-05-04 01:05 -7.09529 -35.79529 32025 ft 418 kts 320°
2026-05-04 01:05 -7.07295 -35.81381 32413 ft 416 kts 321°
2026-05-04 01:05 -7.05093 -35.83207 32774 ft 415 kts 321°
2026-05-04 01:05 -7.02860 -35.85061 33125 ft 414 kts 321°
2026-05-04 01:06 -7.00647 -35.86904 33481 ft 413 kts 321°
2026-05-04 01:06 -6.98437 -35.88747 33853 ft 411 kts 321°
2026-05-04 01:06 -6.96251 -35.90569 34218 ft 409 kts 321°
2026-05-04 01:06 -6.94067 -35.92388 34546 ft 407 kts 321°
2026-05-04 01:07 -6.91906 -35.94189 34822 ft 407 kts 321°
2026-05-04 01:07 -6.89724 -35.96006 35079 ft 407 kts 320°
2026-05-04 01:07 -6.87536 -35.97829 35346 ft 407 kts 320°
2026-05-04 01:07 -6.85359 -35.99643 35589 ft 407 kts 320°
2026-05-04 01:08 -6.83190 -36.01450 35788 ft 408 kts 320°
2026-05-04 01:08 -6.80995 -36.03280 35967 ft 409 kts 320°
2026-05-04 01:08 -6.78802 -36.05107 36005 ft 410 kts 320°
2026-05-04 01:09 -6.74424 -36.08753 36008 ft 410 kts 320°
2026-05-04 01:09 -6.70041 -36.12403 36007 ft 411 kts 320°
2026-05-04 01:10 -6.65649 -36.16059 36006 ft 410 kts 320°
2026-05-04 01:10 -6.61245 -36.19724 36006 ft 410 kts 320°
2026-05-04 01:11 -6.56849 -36.23381 36006 ft 410 kts 320°
2026-05-04 01:11 -6.52448 -36.27042 36006 ft 410 kts 320°
2026-05-04 01:12 -6.48061 -36.30691 36006 ft 410 kts 320°
2026-05-04 01:12 -6.43660 -36.34351 36006 ft 410 kts 320°
2026-05-04 01:13 -6.39288 -36.37986 36006 ft 410 kts 320°
2026-05-04 01:13 -6.34897 -36.41635 36006 ft 410 kts 320°
2026-05-04 01:14 -6.30504 -36.45295 36006 ft 410 kts 320°
2026-05-04 01:14 -6.26108 -36.48955 36006 ft 410 kts 320°
2026-05-04 01:15 -6.21725 -36.52596 36006 ft 410 kts 320°
2026-05-04 01:15 -6.17327 -36.56250 36006 ft 410 kts 320°
2026-05-04 01:16 -6.12945 -36.59891 36006 ft 410 kts 320°
2026-05-04 01:16 -6.08556 -36.63535 36006 ft 410 kts 320°
2026-05-04 01:17 -6.04155 -36.67184 36007 ft 410 kts 320°
2026-05-04 01:17 -5.99758 -36.70831 36006 ft 410 kts 320°
2026-05-04 01:18 -5.95373 -36.74467 36006 ft 410 kts 320°
2026-05-04 01:18 -5.90981 -36.78109 36006 ft 410 kts 320°
2026-05-04 01:19 -5.86562 -36.81773 36007 ft 410 kts 320°
2026-05-04 01:19 -5.82153 -36.85428 36006 ft 410 kts 320°
2026-05-04 01:20 -5.77772 -36.89059 36006 ft 410 kts 320°
2026-05-04 01:20 -5.73339 -36.92732 36006 ft 410 kts 320°
2026-05-04 01:21 -5.68944 -36.96373 36006 ft 410 kts 320°
2026-05-04 01:21 -5.64514 -37.00041 36006 ft 411 kts 320°
2026-05-04 01:22 -5.60103 -37.03694 36006 ft 412 kts 320°
2026-05-04 01:22 -5.55682 -37.07354 36006 ft 413 kts 320°
2026-05-04 01:23 -5.51236 -37.11036 36006 ft 415 kts 320°
2026-05-04 01:23 -5.46928 -37.14601 36006 ft 416 kts 320°
2026-05-04 01:24 -5.42271 -37.18373 36006 ft 417 kts 321°
2026-05-04 01:24 -5.37700 -37.22027 36006 ft 418 kts 321°
2026-05-04 01:25 -5.33158 -37.25665 36005 ft 418 kts 321°
2026-05-04 01:25 -5.28640 -37.29288 36001 ft 418 kts 321°
2026-05-04 01:26 -5.24109 -37.32922 35997 ft 418 kts 321°
2026-05-04 01:26 -5.19588 -37.36546 35992 ft 418 kts 321°
2026-05-04 01:27 -5.15078 -37.40291 35986 ft 419 kts 320°
2026-05-04 01:27 -5.10596 -37.44050 35982 ft 419 kts 320°
2026-05-04 01:28 -5.06123 -37.47794 35980 ft 420 kts 320°
2026-05-04 01:28 -5.03869 -37.49680 35696 ft 421 kts 320°
2026-05-04 01:28 -5.01601 -37.51576 35128 ft 422 kts 320°
2026-05-04 01:28 -4.99317 -37.53486 34473 ft 423 kts 320°
2026-05-04 01:29 -4.97078 -37.55356 33796 ft 424 kts 320°
2026-05-04 01:29 -4.94782 -37.57272 33077 ft 426 kts 320°
2026-05-04 01:29 -4.92517 -37.59163 32357 ft 427 kts 319°
2026-05-04 01:29 -4.90246 -37.61058 31636 ft 429 kts 319°
2026-05-04 01:30 -4.87983 -37.62947 30917 ft 430 kts 319°
2026-05-04 01:30 -4.85688 -37.64863 30392 ft 425 kts 319°
2026-05-04 01:30 -4.83415 -37.66761 29916 ft 420 kts 319°
2026-05-04 01:30 -4.81205 -37.68607 29440 ft 416 kts 319°
2026-05-04 01:31 -4.78987 -37.70459 28950 ft 412 kts 319°
2026-05-04 01:31 -4.76788 -37.72296 28461 ft 408 kts 319°
2026-05-04 01:31 -4.74616 -37.74109 27977 ft 404 kts 318°
2026-05-04 01:31 -4.72463 -37.75907 27490 ft 401 kts 318°
2026-05-04 01:32 -4.70312 -37.77703 27003 ft 397 kts 318°
2026-05-04 01:32 -4.68201 -37.79467 26514 ft 394 kts 318°
2026-05-04 01:32 -4.66094 -37.81226 26025 ft 391 kts 318°
2026-05-04 01:32 -4.64016 -37.82960 25541 ft 388 kts 318°
2026-05-04 01:33 -4.61924 -37.84707 25053 ft 386 kts 318°
2026-05-04 01:33 -4.59860 -37.86430 24564 ft 384 kts 318°
2026-05-04 01:33 -4.57810 -37.88141 24082 ft 382 kts 318°
2026-05-04 01:33 -4.55760 -37.89853 23592 ft 380 kts 318°
2026-05-04 01:34 -4.53728 -37.91548 23105 ft 378 kts 318°
2026-05-04 01:34 -4.51691 -37.93248 22613 ft 377 kts 318°
2026-05-04 01:34 -4.49692 -37.94915 22134 ft 375 kts 318°
2026-05-04 01:34 -4.47639 -37.96519 21647 ft 375 kts 322°
2026-05-04 01:35 -4.45494 -37.97986 21160 ft 375 kts 326°
2026-05-04 01:35 -4.43252 -37.99372 20666 ft 374 kts 326°
2026-05-04 01:35 -4.41023 -38.00730 20182 ft 373 kts 327°
2026-05-04 01:35 -4.38804 -38.02079 19702 ft 372 kts 327°
2026-05-04 01:36 -4.36620 -38.03409 19228 ft 371 kts 327°
2026-05-04 01:36 -4.34401 -38.04763 18748 ft 370 kts 327°
2026-05-04 01:36 -4.32198 -38.06108 18271 ft 369 kts 327°
2026-05-04 01:36 -4.30024 -38.07436 17801 ft 368 kts 327°
2026-05-04 01:37 -4.27841 -38.08794 17326 ft 366 kts 326°
2026-05-04 01:37 -4.25700 -38.10207 16860 ft 365 kts 325°
2026-05-04 01:37 -4.23602 -38.11608 16406 ft 364 kts 325°
2026-05-04 01:37 -4.21484 -38.13023 15918 ft 363 kts 325°
2026-05-04 01:38 -4.19385 -38.14425 15445 ft 362 kts 325°
2026-05-04 01:38 -4.17276 -38.15832 14976 ft 361 kts 325°
2026-05-04 01:38 -4.15188 -38.17224 14516 ft 360 kts 325°
2026-05-04 01:38 -4.13092 -38.18621 14057 ft 358 kts 326°
2026-05-04 01:39 -4.11012 -38.20007 13602 ft 357 kts 326°
2026-05-04 01:39 -4.08951 -38.21380 13148 ft 355 kts 326°
2026-05-04 01:39 -4.06879 -38.22760 12694 ft 353 kts 326°
2026-05-04 01:39 -4.05070 -38.23965 12292 ft 351 kts 326°
2026-05-04 01:40 -4.02896 -38.25412 11817 ft 348 kts 326°
2026-05-04 01:40 -4.00866 -38.26764 11448 ft 342 kts 326°
2026-05-04 01:40 -3.98919 -38.28060 11297 ft 330 kts 326°
2026-05-04 01:40 -3.97046 -38.29307 11166 ft 317 kts 326°
2026-05-04 01:41 -3.95240 -38.30509 11036 ft 305 kts 326°
2026-05-04 01:41 -3.93585 -38.31823 10874 ft 294 kts 309°
2026-05-04 01:41 -3.92600 -38.33556 10682 ft 284 kts 287°
2026-05-04 01:41 -3.92055 -38.35466 10327 ft 282 kts 282°
2026-05-04 01:42 -3.91588 -38.37384 9979 ft 280 kts 282°
2026-05-04 01:42 -3.91124 -38.39280 9641 ft 279 kts 283°
2026-05-04 01:42 -3.90646 -38.41172 9307 ft 277 kts 283°
2026-05-04 01:42 -3.90168 -38.43019 8981 ft 275 kts 283°
2026-05-04 01:43 -3.89680 -38.44878 8653 ft 274 kts 284°
2026-05-04 01:43 -3.89190 -38.46730 8328 ft 272 kts 284°
2026-05-04 01:43 -3.88708 -38.48544 8009 ft 270 kts 284°
2026-05-04 01:43 -3.88222 -38.50375 7688 ft 268 kts 284°
2026-05-04 01:44 -3.87739 -38.52193 7367 ft 267 kts 284°
2026-05-04 01:44 -3.87269 -38.53962 7058 ft 265 kts 284°
2026-05-04 01:44 -3.86796 -38.55762 6741 ft 263 kts 284°
2026-05-04 01:44 -3.86341 -38.57536 6451 ft 260 kts 284°
2026-05-04 01:45 -3.85896 -38.59277 6180 ft 256 kts 284°
2026-05-04 01:45 -3.85454 -38.61006 5911 ft 253 kts 284°
2026-05-04 01:45 -3.84587 -38.64385 5388 ft 246 kts 284°
2026-05-04 01:46 -3.84159 -38.66053 5132 ft 244 kts 284°
2026-05-04 01:46 -3.83739 -38.67688 4900 ft 244 kts 284°
2026-05-04 01:46 -3.83311 -38.69356 4653 ft 243 kts 284°
2026-05-04 01:46 -3.82880 -38.70980 4406 ft 242 kts 289°
2026-05-04 01:47 -3.81962 -38.72346 4141 ft 239 kts 327°
2026-05-04 01:47 -3.80423 -38.72801 4092 ft 225 kts
2026-05-04 01:47 -3.78912 -38.72423 3953 ft 220 kts 21°
2026-05-04 01:47 -3.77476 -38.71890 3657 ft 218 kts 22°
2026-05-04 01:48 -3.76061 -38.71394 3378 ft 217 kts 20°
2026-05-04 01:48 -3.74617 -38.70937 3202 ft 208 kts 20°
2026-05-04 01:48 -3.73461 -38.70212 3028 ft 192 kts 52°
2026-05-04 01:48 -3.73055 -38.69051 2917 ft 165 kts 95°
2026-05-04 01:49 -3.73354 -38.67999 2834 ft 153 kts 112°
2026-05-04 01:49 -3.73758 -38.67036 2626 ft 147 kts 111°
2026-05-04 01:49 -3.74121 -38.66068 2419 ft 146 kts 109°
2026-05-04 01:49 -3.74439 -38.65111 2222 ft 145 kts 107°
2026-05-04 01:50 -3.74725 -38.64138 2027 ft 145 kts 105°
2026-05-04 01:50 -3.74991 -38.63163 1835 ft 144 kts 104°
2026-05-04 01:50 -3.75251 -38.62184 1643 ft 144 kts 104°
2026-05-04 01:50 -3.75508 -38.61216 1454 ft 143 kts 104°
2026-05-04 01:51 -3.75766 -38.60243 1264 ft 143 kts 104°
2026-05-04 01:51 -3.76022 -38.59280 1075 ft 142 kts 104°
2026-05-04 01:51 -3.76278 -38.58322 886 ft 142 kts 104°
2026-05-04 01:51 -3.76535 -38.57361 695 ft 142 kts 104°
2026-05-04 01:52 -3.76791 -38.56402 505 ft 141 kts 104°
2026-05-04 01:52 -3.77045 -38.55465 319 ft 140 kts 104°
2026-05-04 01:52 -3.77296 -38.54514 140 ft 139 kts 104°
2026-05-04 01:52 -3.77534 -38.53619 88 ft 117 kts 104°
2026-05-04 01:53 -3.77695 -38.52994 85 ft 67 kts 105°
2026-05-04 01:53 -3.77773 -38.52709 83 ft 17 kts 105°
2026-05-04 01:53 -3.77798 -38.52628 83 ft 11 kts 125°
2026-05-04 01:53 -3.77860 -38.52645 83 ft 11 kts 239°
2026-05-04 01:54 -3.77894 -38.52714 84 ft 10 kts 243°
2026-05-04 01:54 -3.77907 -38.52785 85 ft 10 kts 276°
2026-05-04 01:54 -3.77891 -38.52856 85 ft 10 kts 285°
2026-05-04 01:54 -3.77872 -38.52924 86 ft 10 kts 285°
2026-05-04 01:55 -3.77853 -38.52993 87 ft 10 kts 285°
2026-05-04 01:55 -3.77834 -38.53061 87 ft 10 kts 285°
2026-05-04 01:55 -3.77816 -38.53126 89 ft 8 kts 283°
2026-05-04 01:55 -3.77801 -38.53187 88 ft 10 kts 284°
2026-05-04 01:56 -3.77780 -38.53262 88 ft 11 kts 286°
2026-05-04 01:56 -3.77757 -38.53343 88 ft 11 kts 285°
2026-05-04 01:56 -3.77735 -38.53420 89 ft 11 kts 285°
2026-05-04 01:56 -3.77714 -38.53498 89 ft 11 kts 285°
2026-05-04 01:57 -3.77693 -38.53580 89 ft 12 kts 285°
2026-05-04 01:57 -3.77671 -38.53661 90 ft 11 kts 285°
2026-05-04 01:57 -3.77655 -38.53741 90 ft 11 kts 263°
2026-05-04 01:57 -3.77689 -38.53811 91 ft 11 kts 241°
2026-05-04 01:58 -3.77731 -38.53881 91 ft 11 kts 215°
2026-05-04 01:58 -3.77796 -38.53854 91 ft 11 kts 129°
2026-05-04 01:58 -3.77843 -38.53822 91 ft 6 kts 201°
2026-05-04 01:58 -3.77869 -38.53837 91 ft 0 kts 215°